Location: Baia Mare
(47.6567°N, 23.5850°E)
Time: 08:02:10
(UTC+03:00)

ISS - Pass Details

Date: 23 May 2018
Orbit: 402 x 407 km, 51.6° (Epoch: 21 May)

Event Time Altitude Azimuth Distance (km) Brightness Sun altitude
Rises 00:00:58 0° 266° (W) 2,317 0.2 -19.4°
Reaches altitude 10° 00:03:06 10° 273° (W) 1,458 -0.8 -19.5°
Maximum altitude 00:06:16 46° 348° (NNW) 549 -2.8 -19.7°
Drops below altitude 10° 00:09:26 10° 64° (ENE) 1,459 -0.9 -19.9°
Sets 00:11:34 0° 71° (ENE) 2,319 0.0 -20.0°
